Weather History for West Palm Beach, FL

Change the Weather History Date:

Saturday, December 7, 2013

  Actual Average Record
Temperature  
Mean Temperature 75 °F 70 °F  
Max Temperature 82 °F 77 °F 86 °F (1942)
Min Temperature 67 °F 62 °F 36 °F (1937)
Degree Days  
Heating Degree Days 0 1  
Month to date heating degree days 0 7  
Since 1 July heating degree days 4 19  
Cooling Degree Days 10 6  
Month to date cooling degree days 52 42  
Year to date cooling degree days 4253 3908  
Growing Degree Days 24 (Base 50)    
Moisture  
Dew Point 67 °F    
Average Humidity 78    
Maximum Humidity 93    
Minimum Humidity 63    
Precipitation  
Precipitation 0.08 in 0.11 in 1.05 in (1979)
Month to date precipitation 4.08 0.77  
Year to date precipitation 64.72 59.72  
Snow  
Snow 0.00 in - - ()
Month to date snowfall 0.0  
Since 1 July snowfall 0.0  
Snow Depth 0.00 in    
Sea Level Pressure  
Sea Level Pressure 30.18 in    
Wind  
Wind Speed 6 mph (NNE)    
Max Wind Speed 17 mph    
Max Gust Speed 21 mph    
Visibility 10 miles    
Events Rain    
T = Trace of Precipitation, MM = Missing Value Source: NWS Daily Summary

Daily Weather History Graph

Daily Weather History Graph

Search for Another Location

Airport:

Trip Planner

Search our weather history database for the weather conditions in past years. The results will help you decide how hot, cold, wet, or windy it might be!

Date:

Astronomy

Dec. 07, 2013 Rise Set
Actual Time 6:56 AM EST 5:27 PM EST
Civil Twilight 6:30 AM EST 5:53 PM EST
Nautical Twilight 6:02 AM EST 6:21 PM EST
Astronomical Twilight 5:33 AM EST 6:50 PM EST
Moon 10:58 AM EST (12/7) 10:46 PM EST (12/7)
Length of Visible Light 11h 22m
Length of Day
10h 31m
Waxing Crescent, 29% of the Moon is Illuminated
Dec 7
Waxing Crescent
Dec 9
First Quarter
Dec 17
Full
Dec 25
Last Quarter
Jan 1
New

Hourly Weather History & Observations

Time (EST) Temp. Heat Index Dew Point Humidity Pressure Visibility Wind Dir Wind Speed Gust Speed Precip Events Conditions
12:53 AM 69.1 °F - 64.0 °F 84% 30.17 in 10.0 mi Calm Calm - N/A   Scattered Clouds
1:53 AM 68.0 °F - 64.0 °F 87% 30.16 in 10.0 mi Calm Calm - N/A   Partly Cloudy
2:53 AM 68.0 °F - 64.9 °F 90% 30.16 in 10.0 mi NW 3.5 mph - N/A   Scattered Clouds
3:53 AM 66.9 °F - 64.0 °F 90% 30.16 in 10.0 mi WNW 3.5 mph - N/A   Partly Cloudy
4:53 AM 66.9 °F - 64.0 °F 90% 30.16 in 10.0 mi Calm Calm - N/A   Partly Cloudy
5:53 AM 68.0 °F - 64.9 °F 90% 30.16 in 10.0 mi West 3.5 mph - N/A   Partly Cloudy
6:53 AM 72.0 °F - 68.0 °F 87% 30.19 in 10.0 mi NNE 3.5 mph - 0.00 in   Mostly Cloudy
7:39 AM 73.4 °F - 66.2 °F 78% 30.20 in 7.0 mi NNE 5.8 mph - 0.00 in   Mostly Cloudy
7:53 AM 73.0 °F - 66.9 °F 81% 30.21 in 7.0 mi NNE 5.8 mph - 0.00 in Rain Light Rain
8:53 AM 72.0 °F - 69.1 °F 91% 30.22 in 7.0 mi NNE 6.9 mph - 0.07 in Rain Light Rain
9:34 AM 73.4 °F - 69.8 °F 88% 30.23 in 10.0 mi NNW 4.6 mph - 0.00 in   Mostly Cloudy
9:53 AM 75.9 °F - 70.0 °F 82% 30.23 in 10.0 mi NNW 3.5 mph - 0.00 in   Mostly Cloudy
10:53 AM 80.1 °F 83.2 °F 70.0 °F 71% 30.22 in 10.0 mi Calm Calm - N/A   Mostly Cloudy
11:53 AM 80.1 °F 82.9 °F 69.1 °F 69% 30.21 in 10.0 mi NNE 4.6 mph - N/A   Mostly Cloudy
12:53 PM 82.0 °F 84.9 °F 68.0 °F 62% 30.18 in 10.0 mi ESE 6.9 mph - N/A   Mostly Cloudy
1:53 PM 80.1 °F 82.7 °F 68.0 °F 67% 30.15 in 10.0 mi NNE 10.4 mph - N/A   Mostly Cloudy
2:41 PM 78.8 °F - 68.0 °F 69% 30.15 in 10.0 mi NE 10.4 mph - N/A   Mostly Cloudy
2:53 PM 75.9 °F - 70.0 °F 82% 30.16 in 5.0 mi ESE 13.8 mph 20.7 mph 0.00 in Rain Light Rain
3:38 PM 75.2 °F - 68.0 °F 78% 30.15 in 10.0 mi North 4.6 mph - 0.01 in   Mostly Cloudy
3:53 PM 75.9 °F - 66.9 °F 74% 30.15 in 10.0 mi NE 3.5 mph - 0.01 in   Mostly Cloudy
4:26 PM 75.2 °F - 68.0 °F 78% 30.16 in 10.0 mi NE 5.8 mph - 0.00 in   Mostly Cloudy
4:53 PM 75.0 °F - 68.0 °F 79% 30.16 in 10.0 mi NNE 9.2 mph - 0.00 in Rain Light Rain
5:31 PM 73.4 °F - 68.0 °F 83% 30.16 in 10.0 mi North 5.8 mph - 0.00 in   Mostly Cloudy
5:53 PM 73.0 °F - 68.0 °F 84% 30.16 in 10.0 mi NNW 4.6 mph - 0.00 in   Mostly Cloudy
6:53 PM 73.0 °F - 68.0 °F 84% 30.18 in 10.0 mi Calm Calm - N/A   Mostly Cloudy
7:53 PM 73.0 °F - 68.0 °F 84% 30.18 in 10.0 mi North 5.8 mph - N/A   Mostly Cloudy
8:53 PM 77.0 °F - 68.0 °F 74% 30.19 in 10.0 mi East 8.1 mph - N/A   Scattered Clouds
9:53 PM 77.0 °F - 66.9 °F 71% 30.19 in 10.0 mi East 10.4 mph - N/A   Scattered Clouds
10:53 PM 77.0 °F - 68.0 °F 74% 30.19 in 10.0 mi East 11.5 mph - N/A   Scattered Clouds
11:53 PM 78.1 °F - 66.9 °F 68% 30.18 in 10.0 mi East 16.1 mph - N/A   Mostly Cloudy